Regional Weather Roundup
Issued by NWS

Home | Current Version | Previous Version | Graphics & Text | Print | Product List | Glossary On
Versions: 1 2 3 4 5 6 7 8 9 10 11 12 13 14 15 16 17 18 19 20 21 22 23 24 25 26 27
000
ASUS45 KTFX 230010
RWRMT
MONTANA REGIONAL WEATHER ROUNDUP
NATIONAL WEATHER SERVICE GREAT FALLS MT
600 PM MDT FRI SEP 22 2017

NOTE: "FAIR" INDICATES FEW OR NO CLOUDS BELOW 12000 FEET WITH NO
SIGNIFICANT WEATHER AND/OR OBSTRUCTIONS TO VISIBILITY.

MTZ001>007-043-230100-
WEST OF THE DIVIDE

CITY           SKY/WX    TMP DP  RH WIND       PRES   REMARKS
MISSOULA       MOSUNNY   45  35  68 SE3       30.03S
BUTTE          CLOUDY    35  32  88 W8        30.00R WCI  29
MULLAN PASS    CLOUDY    35  33  92 CALM      30.00R
ANACONDA         N/A     36  28  75 N6        30.01S WCI  31
DEER LODGE       N/A     37  30  75 NW8       30.04R WCI  31
EUREKA           N/A     54  28  37 CALM      30.02R
HAMILTON         N/A     43  30  61 N7        30.02S
LIBBY            N/A     52  32  46 CALM      30.00R
PLAINS           N/A     52  34  50 CALM      30.03R
$$

MTZ008-052>055-230100-
SOUTHWEST MONTANA

CITY           SKY/WX    TMP DP  RH WIND       PRES   REMARKS
BOZEMAN        CLOUDY    41  36  82 W8        29.99R
DILLON         CLOUDY    36  32  85 NE7       29.97R WCI  30
W YELLOWSTONE  CLOUDY    39  34  81 E16G23    29.95R WCI  30
ENNIS          CLOUDY    37  34  87 N8        30.02R WCI  31
THREE FORKS      N/A     40  35  82 N5        30.00R
TWIN BRIDGES     N/A     38  31  76 N13       29.96S WCI  30
$$

MTZ009-010-012-014-046-048-049-054-230100-
EAST SLOPES AND CENTRAL MONTANA

CITY           SKY/WX    TMP DP  RH WIND       PRES   REMARKS
CUT BANK       CLOUDY    41  31  67 S5        30.07R
GREAT FALLS    CLOUDY    37  34  89 NE6       30.07R
MALMSTROM AFB  PTSUNNY   37  36  93 NE7       30.09R
HELENA         CLOUDY    38  35  89 NW7       30.04R
BOWMANS CRNR   LGT SNOW  31  31 100 N6        30.05R WCI  26
CHOTEAU        FOG       32  32 100 CALM      30.10R VSB 1/2
FAIRFIELD      LGT SNOW  32  31  94 W3        30.08R VSB 5/8
POWER          LGT RAIN  36  34  92 CALM      30.07R
RAYNESFORD     CLOUDY    38  35  89 E7        30.05S
ULM            LGT RAIN  35  35  99 W8        30.08R WCI  28
$$

MTZ011-013-016-021-045-047-050-051-230100-
NORTH CENTRAL MONTANA

CITY           SKY/WX    TMP DP  RH WIND       PRES   REMARKS
HAVRE          CLOUDY    47  32  56 CALM      30.07S
LEWISTOWN      CLOUDY    37  36  96 E8        30.05R WCI  31
N BAR RANCH    CLOUDY    34  34 100 SW3       30.07R
CHINOOK          N/A     48  34  57 W3        30.07F
DENTON           N/A     40  37  89 NE5       30.03S
GEYSER         CLOUDY    37  37  98 NE7       30.05S
JUDITH GAP     CLOUDY    35  34  94 NW13      30.03R WCI  26
WINIFRED       CLOUDY    40  36  85 NE3       30.05R
$$

MTZ017>020-022>027-061-062-230100-
NORTHEAST MONTANA

CITY           SKY/WX    TMP DP  RH WIND       PRES   REMARKS
GLASGOW        CLOUDY    47  39  74 NE5       30.06R
JORDAN           N/A     45  39  79 N7        30.05F
SIDNEY         CLOUDY    47  40  76 N12       30.04R
WOLF POINT     CLOUDY    47  39  74 N8        30.07S
MALTA          CLOUDY    48  36  61 CALM      30.07S
SCOBEY           N/A     42  34  73 NW1       30.03S
$$

MTZ028>42-056>058-230100-
SOUTHCENTRAL AND SOUTHEAST MONTANA

CITY           SKY/WX    TMP DP  RH WIND       PRES   REMARKS
BAKER          CLOUDY    47  36  65 N12       30.00F
BILLINGS       LGT RAIN  40  38  93 NE8       30.03R FOG
LIVINGSTON     CLOUDY    38  33  82 E15       30.00R WCI  29
MILES CITY     CLOUDY    46  35  65 N12       30.04R
BIG TIMBER     PTSUNNY   36  34  93 NE10      30.06R WCI  28
EKALAKA          N/A     45  34  65 N9        29.98R
HARLOWTON      CLOUDY    35  34  99 MISG      30.04R
LAUREL           N/A     41  39  93 NE12      30.03S FOG
$$

REGIONAL REPORTS...DAKOTAS

CITY           SKY/WX    TMP DP  RH WIND       PRES   REMARKS
WILLISTON      CLOUDY    47  41  80 N12       30.02F
MINOT          CLOUDY    50  44  80 NW16G23   29.95R
BEACH          CLOUDY    45  39  81 N15       30.04R
CROSBY         MOCLDY    46  46 100 N10       30.03S
TIOGA          CLOUDY    45  45 100 N14       30.01F
WATFORD CITY   CLOUDY    46  41  81 N8        30.00R
BISMARCK       CLOUDY    50  47  89 N16G23    29.89R
GRAND FORKS    MOCLDY    65  56  72 N22G28    29.68R
FARGO          CLEAR     87  71  58 S10       29.61F HX  93
BUFFALO SD       N/A     50  35  56 N16       29.91R
RAPID CITY     CLEAR     54  37  54 N23       29.92R
$$

REGIONAL REPORTS...WYOMING/IDAHO/WASHINGTON

CITY           SKY/WX    TMP DP  RH WIND       PRES   REMARKS
GILLETTE       CLOUDY    49  37  63 N12       29.96R
SHERIDAN       CLOUDY    46  40  79 CALM      29.99R
BUFFALO WY     CLOUDY    42  37  82 N5        30.01R
CODY           CLOUDY    39  35  86 N7        29.99R
IDAHO FALLS    CLOUDY    46  35  65 SW8       29.95S
SALMON         CLOUDY    50  33  52 W3        29.94R
BOISE          CLOUDY    50  40  68 CALM      29.98R
SPOKANE        PTSUNNY   56  35  45 E8        29.98R
$$

REGIONAL REPORTS...ALBERTA

CITY           SKY/WX    TMP DP  RH WIND       PRES   REMARKS
EDMONTON       CLOUDY    43  39  87 S3        30.08S
CALGARY        CLOUDY    41  32  70 E6        30.06R
LETHBRIDGE     PTSUNNY   45  32  61 VRB9      30.08R
MEDICINE HAT   CLOUDY    46  36  66 NW8       30.06F
$$

REGIONAL REPORTS...SASKATCHEWAN

CITY           SKY/WX    TMP DP  RH WIND       PRES   REMARKS
SWIFT CURRENT  CLOUDY    45  34  65 N7        30.05S
REGINA         LGT RAIN  46  41  81 NW9       30.05R
SASKATOON      CLOUDY    46  39  76 CALM      30.08R
$$




USA.gov is the U.S. government's official web portal to all federal, state and local government web resources and services.